sat.trackr.live / text

‹ back to catalog

STARLINK-30123

NORAD 56838 · 2023-079R

PAYLOAD ACTIVE UNKNOWN

§ Identity

Operator
Country
US
Launch date
2023-06-04
Launch site
AFETR
Launch vehicle
Mass (kg)
RCS (m²)

Purposes: comms

External: N2YO · Heavens-Above · Gunter

§ Orbital elements

Epoch: 2026-05-25T04:12:28.259712Z

Period
94.27 min
Inclination
43.0006°
Eccentricity
0.0001299
Mean motion
15.27582089 rev/d
Perigee alt
482.2 km
Apogee alt
483.9 km
Semi-major
6,861.2 km
B*
9.8586e-5
RAAN
321.9911°
Arg perigee
271.0930°
Mean anomaly
88.9773°
Rev number
16,544

§ Raw data

STARLINK-301231 56838U 23079R   26145.17532708  .00002452  00000+0  98586-4 0  99942 56838  43.0006 321.9911 0001299 271.0930  88.9773 15.27582089165443

JSON: /api/v1/satellites/56838 · /tle

For live sub-satellite position, see the globe view (requires WebGL).

§ Visibility from observer

Set your observer location to see the next 7 days of passes ≥ 10°. The values pass through the URL so the page stays shareable.

No JS? Fill the form by hand. The geolocation button needs JavaScript.